Location: Casa Rossa
(45.2389°N, 12.2056°E)
Time: 04:27:39
(UTC+00:00)

Cosmos 1500 - Pass Details

Date: 14 July 2020
Orbit: 498 x 520 km, 82.5° (Epoch: 11 August)

Event Time Altitude Azimuth Distance (km) Brightness Sun altitude
Exits shadow 00:58:27 53° 175° (S) 633 3.2 -19.3°
Maximum altitude 00:59:17 81° 97° (E) 523 3.1 -19.2°
Drops below altitude 10° 01:03:05 10° 11° (N) 1,736 7.0 -18.9°
Sets 01:05:13 0° 10° (N) 2,623 8.2 -18.7°
